Regional Weather Roundup
Issued by NWS Grand Forks, ND

Home | Current Version | Previous Version | Graphics & Text | Print | Product List | Glossary On
Versions: 1 2 3 4 5 6 7 8 9 10 11 12 13 14 15 16 17 18 19 20 21 22 23 24 25 26 27 28 29 30 31 32 33 34 35 36 37 38 39 40 41 42 43 44 45 46 47 48 49 50
000
ASUS43 KFGF 060731
RWRFGF
PRAIRIE TO PINES  WEATHER ROUNDUP
NATIONAL WEATHER SERVICE EASTERN NORTH DAKOTA/GRAND FORKS ND
200 AM CDT MON JUL 06 2015

 **SATELLITE DATA USED TO AUGMENT SKY COVER AT AUTOMATED STATIONS**
 *****  WEATHER ACROSS EASTERN NORTH DAKOTA  *****

CITY           SKY/WX    TMP DP  RH WIND       PRES   REMARKS
GRAND FORKS    CLOUDY    62  59  90 N14G20    29.90S FOG
GRAND FRKS AFB PTCLDY    63  58  82 N16       29.91S HAZE
GRAND FRKS NWS   N/A     61 N/A N/A VRB7        N/A
DEVILS LAKE    MOCLDY    59  52  77 N12       29.96S
FARGO          CLOUDY    66  58  75 N9        29.88R HAZE
WAHPETON ARPT  CLOUDY    66  61  82 N10       29.87R
$$

 ***** WEATHER ACROSS CENTRAL AND WESTERN NORTH DAKOTA  *****

CITY           SKY/WX    TMP DP  RH WIND       PRES   REMARKS
BISMARCK       MOCLDY    64  56  75 N10       30.01R HAZE
MINOT          PTCLDY    57  51  80 NW10      30.02F
JAMESTOWN      CLOUDY    63  58  83 N8        29.94R HAZE
MINOT AFB      PTCLDY    57  57  99 NW9       30.02F
GARRISON         N/A     56  53  90 N7        30.03S
WILLISTON      CLOUDY    61  51  70 N5        30.10R
DICKINSON      CLOUDY    57  52  83 NW7       30.07R
HETTINGER      CLOUDY    59  52  77 N8        30.09R HAZE
$$

 *****  OTHER AIRPORT OBSERVATIONS IN OUR AREA  *****

CITY           SKY/WX    TMP DP  RH WIND       PRES   REMARKS
WALHALLA       FAIR      59  59 100 MISG      29.99R FOG
GRAFTON AIRPOR FAIR      59  59 100 N15       29.95R FOG
VALLEY CITY AR PTSUNNY   64  64 100 N6        29.94R FOG
CANDO          FAIR      55  52  88 N10       30.00S FOG
CAVALIER APRT  PTSUNNY   59  55  88 N10       29.97R FOG
GWINNER          N/A     66  63  88 N8        29.91R
ROLLA          CLOUDY    52  52 100 N10       30.04R FOG
 ***** THE ABOVE OBSERVATIONS ARE NON NWS ARE NOT QUALITY
       CONTROLLED AND MAY MIS-REPORT RAIN FOR SNOW...
$$

  *****  WEATHER ACROSS NORTHERN MINNESOTA  *****

CITY           SKY/WX    TMP DP  RH WIND       PRES   REMARKS
FLAG ISLAND    MOCLDY    61  54  77 N22       29.91R
WARROAD        MOCLDY    59  55  88 NW9       29.93R FOG
ROSEAU         MOCLDY    61  54  77 N9        29.93R HAZE
HALLOCK        PTCLDY    61  54  77 N15G22    29.95R
THF RVR FALLS  CLOUDY    63  57  82 N10       29.91S
BAUDETTE       CLOUDY    61  58  90 NW5       29.88R FOG
WASKISH        MOCLDY    61  59  94 CALM      29.90R FOG
CROOKSTON      MOCLDY    63  61  94 N7        29.93R FOG
STEPHEN NDAWN    N/A     61  57  88 N12         N/A
GREENBUSH NDAW   N/A     57  55  94 VRB12       N/A
$$
  *****  WEATHER ACROSS CENTRAL AND WEST MINNESOTA  *****

CITY           SKY/WX    TMP DP  RH WIND       PRES   REMARKS
FOSSTON          N/A     61  59  94 CALM      29.91S FOG
BEMIDJI        MOCLDY    63  61  94 CALM      29.91R FOG
PARK RAPIDS    CLOUDY    68  63  84 N9        29.88F
ELBOW LAKE     FAIR      69  65  88 N9        29.84S
WADENA         CLOUDY    66  63  88 N6        29.85F
DETROIT LAKES  CLOUDY    66  61  82 NE9       29.90R
MOORHEAD       CLOUDY    64  61  88 N9        29.90R HAZE
FERGUS FALLS   CLOUDY    70  63  78 NE7       29.85S
MORRIS MN      CLOUDY    70  66  88 N8        29.82R
STAPLES        CLOUDY    66  64  94 N9        29.85F
$$
  *****  WEATHER ELSEWHERE ACROSS MINNESOTA  *****

CITY           SKY/WX    TMP DP  RH WIND       PRES   REMARKS
DULUTH         CLOUDY    67  65  93 NW9       29.83F
INTRNTL FALLS  CLOUDY    52  52 100 CALM      29.87S FOG
ELY            PTCLDY    63  61  94 NW6       29.86S
CLOQUET        FOG       66  64  94 CALM      29.83F VSB 1
WHEATON        CLOUDY    66  63  88 N10       29.87S
BRAINERD       LGT RAIN  69  67  93 NE6       29.85F
HIBBING        PTCLDY    64  61  90 N5        29.87R
ALEXANDRIA     CLOUDY    69  66  90 N12G20    29.84S
SAINT CLOUD    LGT RAIN  70  69  97 NE5       29.80S
MINNEAPOLIS    CLOUDY    73  70  90 E10       29.78S FOG
$$

  *****  WEATHER ACROSS SOUTH DAKOTA  *****

CITY           SKY/WX    TMP DP  RH WIND       PRES   REMARKS
SIOUX FALLS    RAIN      70  70 100 N10       29.84R
BROOKINGS      CLOUDY    70  64  83 N10       29.87R
WATERTOWN      LGT RAIN  68  65  90 N16G24    29.86R
HURON          RAIN      68  66  93 N14       29.88R FOG
SISSETON         N/A     69  66  90 NE14      29.85S
ABERDEEN       CLOUDY    70  65  84 N10       29.88R
MITCHELL       CLOUDY    70  69  97 N8        29.87F FOG
PIERRE         LGT RAIN  64  62  93 NW12      29.95R FOG
MOBRIDGE       CLOUDY    67  63  87 N8        29.96R FOG
RAPID CITY     CLOUDY    60  57  89 NW14      30.10R FOG
$$

  *****  SOME WEATHER IN NEARBY STATES *****

CITY           SKY/WX    TMP DP  RH WIND       PRES   REMARKS
GLASGOW MT     LGT RAIN  57  53  86 W7        30.16R
GREAT FALLS MT CLOUDY    50  49  96 W5        30.27S
CHEYENNE WY    LGT RAIN  58  57  97 N12       30.19R FOG
SCOTTSBLUFF NE CLOUDY    62  60  93 N12G21    30.08R
OMAHA NE       TSTM      80  76  87 SE13      29.79F
DES MOINES IA  CLOUDY    77  71  82 S12       29.85S
DAVENPORT IA   CLEAR     71  65  81 S10       29.95F
CHICAGO IL     CLEAR     69  62  78 S7        29.99S
EAU CLAIRE WI  CLOUDY    73  65  75 SE5       29.84F
LA CROSSE WI   MOCLDY    74  67  78 S13       29.87F
$$

  *****  SOME NATIONAL WEATHER *****

CITY           SKY/WX    TMP DP  RH WIND       PRES   REMARKS
LA GUARDIA NY  MOCLDY    74  66  76 S5        30.13S
RALEIGH NC     MOCLDY    70  69  97 SE6       30.10R
ATLANTA GA     MOCLDY    72  68  87 SW6       30.11F
NEW ORLEANS LA MOCLDY    75  69  81 S5        30.09R
OKLAHOMA CITY  MOCLDY    77  70  79 S10       29.94S
ALBUQUERQUE NM CLOUDY    68  61  78 S5        30.16S
SALT LAKE CITY CLEAR     74  61  63 CALM      30.03R
LOS ANGELES CA CLOUDY    64  59  83 VRB3      30.02F
BOISE ID       PTCLDY    72  55  55 SE6       29.98R
SEATTLE WA     CLEAR     70  55  59 S5        29.91R
$$

*** WEATHER ACROSS MANITOBA...SASKATCHEWAN AND ONTARIO ***
                ***ONTARIO***

CITY           SKY/WX    TMP DP  RH WIND       PRES   REMARKS
GERALDTON      LGT RAIN  64  63  94 SW8       29.74S FOG
THUNDER BAY    CLOUDY    61  61 100 W3        29.79R
SIOUX LOOKOUT  CLOUDY    59  59 100 N6        29.85R FOG
TORONTO        MOCLDY    68  61  77 SE5       30.09R
BIG TROUT LK   MOCLDY    48  41  76 NW17G26   29.68R
PICKLE LAKE    NOT AVBL
DRYDEN         CLOUDY    57  55  94 NW8       29.87R FOG
KENORA         PTCLDY    57  52  82 NW10G18   29.91R SMOKE
$$
                *** MANITOBA***

CITY           SKY/WX    TMP DP  RH WIND       PRES   REMARKS
BRANDON        MOCLDY    48  46  93 N7        30.05R SMOKE
DAUPHIN        MOCLDY    50  46  87 NW6       30.05R
ISLAND LAKE    CLOUDY    46  43  87 NW14      29.87R
PILOT MOUND      N/A     54  50  87 N9          N/A
THE PAS        CLEAR     52  41  66 N3        30.09R
THOMPSON       MOCLDY    43  39  87 NW7       29.98R
WINNIPEG       PTCLDY    54  48  82 N16G24    29.99S
LYNN LAKE      CLEAR     43  37  81 W7        30.04S
CHURCHILL      CLOUDY    43  39  87 N20G26    29.84R
$$
                ***SASKATCHEWAN***

CITY           SKY/WX    TMP DP  RH WIND       PRES   REMARKS
ESTEVAN        MOCLDY    52  50  93 N6        30.08S
KINDERSLEY     MOCLDY    52  50  93 NW3       30.18R
LLOYDMINSTER   CLOUDY    46  43  87 W9        30.16S
PRINCE ALBERT  CLOUDY    45  43  93 W2        30.11S
REGINA         MOCLDY    50  48  93 N7        30.12R
YORKTON        CLEAR     48  45  87 W5        30.09R
N. BATTLEFORD  CLEAR     43  41  93 NW2       30.18S
LA RONGE       NOT AVBL
SASKATOON      PTCLDY    48  43  81 W5        30.16S
SWIFT CURRENT  CLOUDY    54  46  76 NE5       30.15F
$$
NOTE: THESE ARE AUTOMATED STATIONS WITH LIMITED QUALITY CONTROL
      "FAIR" INDICATES FEW OR NO CLOUDS BELOW 12,000 FEET WITH NO
      SIGNIFICANT WEATHER AND/OR OBSTRUCTIONS TO VISIBILITY.
      SKY/WX - SKY CONDITION AND SIGNIFICANT WEATHER.
      TMP - AIR TEMPERATURE.    DP   - DEWPOINT TEMPERATURE.
      RH  - RELATIVE HUMIDITY.  PRES - PRESSURE.
      HX  - HEAT INDEX.         WCI  - WIND CHILL INDEX.
$


USA.gov is the U.S. government's official web portal to all federal, state and local government web resources and services.